Location: Seattle
(47.6064°N, 122.3308°W)
Time: 04:28:39
(UTC-07:00)

AO-7 - Pass Details

Date: 25 March 2023
Orbit: 1439 x 1459 km, 101.9° (Epoch: 07 June)

Event Time Altitude Azimuth Distance (km) Brightness Sun altitude
Rises 04:39:34 0° 26° (NNE) 4,569 ? -23.6°
Reaches altitude 10° 04:43:06 10° 39° (NE) 3,583 ? -23.1°
Maximum altitude 04:49:40 25° 92° (E) 2,593 ? -22.1°
Drops below altitude 10° 04:56:09 10° 144° (SE) 3,555 ? -21.2°
Sets 04:59:36 0° 157° (SSE) 4,526 ? -20.7°
